GXIBA-1

导读

GXIBA-1(NORAD编号67685)是一颗低地球轨道卫星,运行高度约512公里,飞行速度约7.678公里/秒,轨道参数明确,可通过业余无线电观测软件追踪其运行轨迹。作为近地轨道卫星,它处于当前全球卫星星座快速扩张的密集空间环境中,面临着空间碎片碰撞风险与潜在射频链路安全威胁。该卫星的轨道数据已公开,可供卫星观测爱好者进行跟踪观测,其斜距范围约4045公里,信号延迟约13.49毫秒,是业余航天观测领域的可追踪目标之一。

Basic Information
目录编号:
67685
目录名称:
GXIBA-1
国际标识:
1998-067YB
轨道中心:
EARTH
卫星名称:
GXIBA-1
卫星全名:
GXIBA-1
卫星状态:
在轨 (已飞行10151 天)
发射日期:
1998-11-20 UTC
国别 :
(MX)
星等 :
--
Orbit Information
数据来源 国际轨道数据
星历时间: 2026-09-05T13:50:03+0800
16小时前
查看轨道信息
半长轴: 6733.709km
偏心率: 0.0008325
轨道倾角: 51.623°
近地点辐角 117.881°
升交点赤经 247.343°
平近点角 242.304°
近地点: 349.966km
远地点: 361.178km
周期: 91.652分钟
每日圈数: 15.711631
Detailed Information
使用方式:
暂无
2D Orbit Map
3D Orbit Map
Orbit Altitude Analysis Chart
Orbit Inclination Analysis Chart
Orbit Comprehensive Analysis Chart
View Comprehensive Chart
Conjunction Data List
Event ID Objects TCA Miss Dist (km) Collision Risk Probability Collision Risk Index (CRI) Action
CDM_260906-044406-153306-768522
GXIBA-1 (67685)
2026-09-06T
04:44:40+0000
1.978 km
极远距离
2.601726E-6 低风险 0.43